Weather History for KLVN - February, 2012

Change the Weather History Date:

Saturday, February 25, 2012

  Actual Average Record
Temperature  
Mean Temperature 17 °F -  
Max Temperature 26 °F 31 °F 56 °F (1976)
Min Temperature 8 °F 11 °F -23 °F (1967)
Degree Days  
Heating Degree Days 48    
Moisture  
Dew Point 11 °F    
Average Humidity 75    
Maximum Humidity 92    
Minimum Humidity 59    
Precipitation  
Precipitation 0.00 in - - ()
Sea Level Pressure  
Sea Level Pressure 30.14 in    
Wind  
Wind Speed 8 mph (WSW)    
Max Wind Speed 16 mph    
Max Gust Speed 24 mph    
Visibility 9 miles    
Events Snow    
Averages and records for this station are not official NWS values.
T = Trace of Precipitation, MM = Missing Value Source: NWS Daily Summary

Daily Weather History Graph

Daily Weather History Graph

Search for Another Location

Airport or City:

Trip Planner

Search our weather history database for the weather conditions in past years. The results will help you decide how hot, cold, wet, or windy it might be!

Date:

Astronomy

Feb. 25, 2012 Rise Set
Actual Time 6:58 AM CST 5:54 PM CST
Civil Twilight 6:28 AM CST 6:24 PM CST
Nautical Twilight 5:54 AM CST 6:58 PM CST
Astronomical Twilight 5:21 AM CST 7:31 PM CST
Moon 8:10 AM CST (2/25) 10:09 PM CST (2/25)
Length of Visible Light 11h 55m
Length of Day
10h 56m
Waxing Crescent, 14% of the Moon is Illuminated
Feb 25
Waxing Crescent
Feb 29
First Quarter
Mar 8
Full
Mar 14
Last Quarter
Mar 22
New

Hourly Weather History & Observations

Time (CST) Temp. Windchill Dew Point Humidity Pressure Visibility Wind Dir Wind Speed Gust Speed Precip Events Conditions
12:04 AM 12.2 °F -1.0 °F 6.8 °F 79% 30.06 in 10.0 mi WNW 10.4 mph - N/A   Scattered Clouds
12:24 AM 10.4 °F -4.1 °F 6.8 °F 85% 30.06 in 10.0 mi WNW 11.5 mph - N/A   Mostly Cloudy
12:44 AM 10.4 °F -4.1 °F 6.8 °F 85% 30.07 in 10.0 mi WNW 11.5 mph - N/A   Mostly Cloudy
1:04 AM 12.2 °F -1.8 °F 6.8 °F 79% 30.08 in 10.0 mi NW 11.5 mph 17.3 mph N/A   Overcast
1:24 AM 12.2 °F -4.3 °F 6.8 °F 79% 30.07 in 10.0 mi NW 16.1 mph 24.2 mph N/A Snow Light Snow
1:43 AM 12.2 °F -3.1 °F 6.8 °F 79% 30.09 in 10.0 mi NW 13.8 mph - N/A Snow Light Snow
2:04 AM 12.2 °F -1.8 °F 6.8 °F 79% 30.09 in 10.0 mi NW 11.5 mph - N/A   Overcast
2:24 AM 12.2 °F -1.0 °F 6.8 °F 79% 30.10 in 10.0 mi NW 10.4 mph - N/A   Scattered Clouds
3:24 AM 10.4 °F -3.3 °F 5.0 °F 79% 30.11 in 10.0 mi WNW 10.4 mph - N/A   Clear
3:43 AM 10.4 °F -2.4 °F 5.0 °F 79% 30.12 in 10.0 mi West 9.2 mph - N/A   Clear
4:04 AM 8.6 °F -3.7 °F 5.0 °F 85% 30.14 in 10.0 mi West 8.1 mph - N/A   Clear
4:24 AM 8.6 °F -4.7 °F 5.0 °F 85% 30.14 in 10.0 mi West 9.2 mph - N/A   Clear
4:44 AM 8.6 °F -3.7 °F 5.0 °F 85% 30.15 in 10.0 mi WNW 8.1 mph - N/A   Clear
5:04 AM 8.6 °F -4.7 °F 3.2 °F 79% 30.15 in 10.0 mi West 9.2 mph - N/A   Clear
5:24 AM 8.6 °F -4.7 °F 5.0 °F 85% 30.16 in 10.0 mi West 9.2 mph - N/A Snow Light Snow
5:43 AM 8.6 °F -2.6 °F 3.2 °F 79% 30.16 in 10.0 mi WNW 6.9 mph - N/A Snow Light Snow
6:24 AM 8.6 °F -3.7 °F 5.0 °F 85% 30.17 in 10.0 mi West 8.1 mph - N/A Snow Light Snow
6:44 AM 8.6 °F -1.3 °F 5.0 °F 85% 30.17 in 7.0 mi West 5.8 mph - N/A Snow Light Snow
7:04 AM 8.6 °F -1.3 °F 6.8 °F 92% 30.18 in 4.0 mi West 5.8 mph - N/A Snow Light Snow
7:24 AM 8.6 °F -4.7 °F 6.8 °F 92% 30.19 in 3.0 mi WNW 9.2 mph - N/A Snow Light Snow
7:44 AM 8.6 °F -5.5 °F 6.8 °F 92% 30.20 in 2.0 mi West 10.4 mph - N/A Snow Light Snow
8:04 AM 8.6 °F -4.7 °F 6.8 °F 92% 30.20 in 3.0 mi WNW 9.2 mph - N/A Snow Light Snow
8:23 AM 8.6 °F -3.7 °F 5.0 °F 85% 30.21 in 3.0 mi West 8.1 mph - N/A Snow Light Snow
8:44 AM 10.4 °F -0.4 °F 5.0 °F 79% 30.21 in 3.0 mi WNW 6.9 mph - N/A Snow Light Snow
9:04 AM 10.4 °F -0.4 °F 6.8 °F 85% 30.22 in 7.0 mi West 6.9 mph - N/A Snow Light Snow
9:23 AM 10.4 °F -0.4 °F 6.8 °F 85% 30.22 in 7.0 mi West 6.9 mph - N/A Snow Light Snow
10:04 AM 14.0 °F 5.1 °F 6.8 °F 73% 30.22 in 10.0 mi WNW 5.8 mph - N/A   Clear
10:23 AM 15.8 °F 6.1 °F 8.6 °F 73% 30.22 in 10.0 mi West 6.9 mph - N/A   Clear
10:44 AM 15.8 °F 10.2 °F 8.6 °F 73% 30.22 in 10.0 mi West 3.5 mph - N/A   Clear
11:23 AM 17.6 °F 9.3 °F 10.4 °F 73% 30.22 in 10.0 mi West 5.8 mph - N/A   Clear
12:23 PM 21.2 °F 14.9 °F 12.2 °F 68% 30.19 in 10.0 mi West 4.6 mph - N/A   Clear
12:44 PM 21.2 °F 13.6 °F 12.2 °F 68% 30.18 in 10.0 mi South 5.8 mph - N/A   Clear
1:04 PM 23.0 °F 18.4 °F 12.2 °F 63% 30.18 in 10.0 mi West 3.5 mph - N/A   Clear
1:23 PM 24.8 °F 16.9 °F 12.2 °F 59% 30.18 in 10.0 mi WSW 6.9 mph - N/A   Clear
1:44 PM 24.8 °F 16.9 °F 12.2 °F 59% 30.18 in 10.0 mi WSW 6.9 mph - N/A   Clear
2:04 PM 24.8 °F - 14.0 °F 64% 30.17 in 10.0 mi Calm Calm - N/A   Clear
2:23 PM 26.6 °F 21.2 °F 14.0 °F 59% 30.16 in 10.0 mi WSW 4.6 mph - N/A   Clear
2:44 PM 26.6 °F - 14.0 °F 59% 30.15 in 10.0 mi Calm Calm - N/A   Clear
3:04 PM 26.6 °F 22.6 °F 14.0 °F 59% 30.15 in 10.0 mi South 3.5 mph - N/A   Clear
3:23 PM 26.6 °F - 14.0 °F 59% 30.14 in 10.0 mi Calm Calm - N/A   Clear
4:04 PM 26.6 °F - 14.0 °F 59% 30.12 in 10.0 mi Calm Calm - N/A   Clear
4:24 PM 26.6 °F - 14.0 °F 59% 30.11 in 10.0 mi Calm Calm - N/A   Clear
4:44 PM 26.6 °F 21.2 °F 14.0 °F 59% 30.11 in 10.0 mi SE 4.6 mph - N/A   Clear
5:04 PM 26.6 °F 21.2 °F 14.0 °F 59% 30.12 in 10.0 mi South 4.6 mph - N/A   Clear
5:23 PM 24.8 °F - 14.0 °F 64% 30.11 in 10.0 mi Calm Calm - N/A   Clear
5:44 PM 24.8 °F - 14.0 °F 64% 30.11 in 10.0 mi Calm Calm - N/A   Clear
6:04 PM 24.8 °F - 14.0 °F 64% 30.12 in 10.0 mi Calm Calm - N/A   Clear
6:24 PM 24.8 °F - 15.8 °F 69% 30.11 in 10.0 mi Calm Calm - N/A   Clear
6:44 PM 23.0 °F 18.4 °F 15.8 °F 74% 30.11 in 10.0 mi ESE 3.5 mph - N/A   Clear
7:23 PM 23.0 °F 15.8 °F 15.8 °F 74% 30.09 in 10.0 mi ESE 5.8 mph - N/A   Clear
7:44 PM 23.0 °F 15.8 °F 15.8 °F 74% 30.09 in 10.0 mi ESE 5.8 mph - N/A   Clear
8:04 PM 23.0 °F 17.0 °F 17.6 °F 80% 30.10 in 10.0 mi ESE 4.6 mph - N/A   Clear
8:24 PM 24.8 °F 19.1 °F 17.6 °F 74% 30.09 in 10.0 mi SE 4.6 mph - N/A   Clear
8:44 PM 24.8 °F 20.5 °F 17.6 °F 74% 30.10 in 10.0 mi ESE 3.5 mph - N/A   Scattered Clouds
9:03 PM 24.8 °F 20.5 °F 17.6 °F 74% 30.12 in 10.0 mi SSE 3.5 mph - N/A   Scattered Clouds
9:24 PM 24.8 °F 17.9 °F 17.6 °F 74% 30.13 in 10.0 mi SSE 5.8 mph - N/A   Mostly Cloudy
9:44 PM 24.8 °F 16.9 °F 19.4 °F 80% 30.11 in 10.0 mi SE 6.9 mph - N/A   Scattered Clouds
10:04 PM 24.8 °F 16.1 °F 19.4 °F 80% 30.10 in 10.0 mi SE 8.1 mph - N/A   Clear
10:23 PM 24.8 °F 15.3 °F 19.4 °F 80% 30.09 in 10.0 mi SSE 9.2 mph - N/A   Scattered Clouds
10:44 PM 24.8 °F 14.0 °F 19.4 °F 80% 30.07 in 10.0 mi SE 11.5 mph - N/A   Scattered Clouds
11:04 PM 24.8 °F 14.6 °F 19.4 °F 80% 30.06 in 10.0 mi SE 10.4 mph - N/A   Scattered Clouds
11:23 PM 23.0 °F 12.4 °F 17.6 °F 80% 30.05 in 10.0 mi SE 10.4 mph 17.3 mph N/A   Scattered Clouds
11:44 PM 23.0 °F 11.7 °F 17.6 °F 80% 30.04 in 10.0 mi SE 11.5 mph 16.1 mph N/A   Mostly Cloudy